sat.trackr.live / text

‹ back to catalog

ONEWEB-0194

NORAD 48237 · 2021-031AD

PAYLOAD ACTIVE UNKNOWN

§ Identity

Operator
Country
UK
Launch date
2021-04-25
Launch site
VOSTO
Launch vehicle
Mass (kg)
RCS (m²)

Purposes: comms

External: N2YO · Heavens-Above · Gunter

§ Orbital elements

Epoch: 2026-05-24T21:56:00.159936Z

Period
109.55 min
Inclination
87.8943°
Eccentricity
0.0001821
Mean motion
13.14501076 rev/d
Perigee alt
1,204.4 km
Apogee alt
1,207.2 km
Semi-major
7,583.9 km
B*
-4.3122e-4
RAAN
294.3493°
Arg perigee
90.8711°
Mean anomaly
269.2627°
Rev number
24,530

§ Raw data

ONEWEB-01941 48237U 21031AD  26144.91389074 -.00000147  00000+0 -43122-3 0  99972 48237  87.8943 294.3493 0001821  90.8711 269.2627 13.14501076245303

JSON: /api/v1/satellites/48237 · /tle

For live sub-satellite position, see the globe view (requires WebGL).

§ Visibility from observer

Set your observer location to see the next 7 days of passes ≥ 10°. The values pass through the URL so the page stays shareable.

No JS? Fill the form by hand. The geolocation button needs JavaScript.